Location: Brede
(50.9167°N, 0.6000°E)
Time: 21:37:09
(UTC+00:00)

A-11 Canister half - Pass Details

Date: 26 November 2020
Orbit: 1524 x 1684 km, 47.3° (Epoch: 23 January)

Event Time Altitude Azimuth Distance (km) Brightness Sun altitude
Rises 05:51:01 0° 210° (SSW) 4,927 11.5 -15.3°
Reaches altitude 10° 05:54:32 10° 202° (SSW) 3,938 11.1 -14.7°
Maximum altitude 06:03:20 36° 141° (SE) 2,436 10.6 -13.4°
Drops below altitude 10° 06:11:59 10° 80° (E) 3,876 12.1 -12.1°
Sets 06:15:24 0° 73° (ENE) 4,843 12.6 -11.6°
